Content
SEND FEEDBACK

Daily
Averages
Monthly
Summary
United States of America

ASHEVILLE, NORTH CAROLINA


Home > North America > United States > North Carolina
Elevation: 2240 feet     Latitude: 35 36N     Longitude: 082 32W

WEATHER
 
SELECT A DAY
Number of Records: 226,752;   Date Range: 1/1/95 - 9/18/14
 
SHARE

PRINT THIS DATA

[ ← Previous Day ]
WEATHER ALMANAC - JANUARY 26, 2013
[ Next Day → ]
[ °C ]   °F
Weather ElementAverageHighLow
Temperature36.6 °F46.9 °F (2:54 pm)30 °F (11:54 pm)
Dewpoint27.4 °F35.6 °F (1:09 am)21 °F (3:54 pm)
Humidity72.3 %97 % (1:54 am)36 % (3:54 pm)
Barometer30.21 in30.35 in (11:54 pm)30.08 in (1:09 am)
Wind Speed12.3 mph19.6 mph (12:54 am)
Wind Gust24.2 mph (3:54 am)
Weather ElementAverage
Visibility10 mi
Wind DirectionNNW (324.8 °)

Weather ElementTotal
Precipitation---
Heating Degree Days26.6 (Base 65)
Averaged from 25 records on January 26, 2013
WEATHER CONDITIONS BREAKOUT
WIND DIRECTION BREAKOUT
WEATHER BY HOUR - JANUARY 26, 2013
[ °C ]   °F
Local TimeTemperatureDewpointHumidityBarometerVisibilityWind DirectionWind SpeedGust SpeedPrecipitationEventsConditions
12:54 AM37.0 °F35.1 °F93 %30.12 in10.0 miNNW (340°)19.6 mphOvercast
1:09 AM37.4 °F35.6 °F93 %30.08 in10.0 miNNW (340°)19.6 mphOvercast
1:54 AM36.0 °F35.1 °F97 %30.12 in10.0 miNNW (330°)13.8 mphOvercast
2:54 AM36.0 °F34.0 °F93 %30.12 in10.0 miNNW (340°)12.7 mphOvercast
3:54 AM35.1 °F33.1 °F92 %30.13 in10.0 miNNW (330°)16.1 mph24.2 mphOvercast
4:54 AM35.1 °F32.0 °F89 %30.13 in10.0 miNNW (340°)17.3 mphOvercast
5:54 AM33.1 °F30.9 °F92 %30.14 in10.0 miNNW (340°)16.1 mphOvercast
6:54 AM32.0 °F30.0 °F92 %30.17 in10.0 miNNW (340°)19.6 mphOvercast
7:54 AM32.0 °F28.0 °F85 %30.18 in10.0 miNorth (350°)16.1 mph21.9 mphOvercast
8:54 AM32.0 °F28.0 °F85 %30.20 in10.0 miNNW (340°)11.5 mphScattered Clouds
9:54 AM33.1 °F26.1 °F75 %30.23 in10.0 miNorth (350°)10.4 mphPartly Cloudy
10:54 AM34.0 °F24.1 °F67 %30.24 in10.0 miNNW (330°)12.7 mphClear
11:54 AM36.0 °F23.0 °F59 %30.24 in10.0 miNNW (340°)13.8 mphClear
12:54 PM37.9 °F23.0 °F55 %30.22 in10.0 miNNW (330°)15.0 mphClear
1:54 PM43.0 °F23.0 °F45 %30.19 in10.0 miNorth (350°)10.4 mphClear
2:54 PM46.9 °F21.9 °F37 %30.18 in10.0 miNorth (350°)12.7 mph18.4 mphClear
3:54 PM46.9 °F21.0 °F36 %30.19 in10.0 miNNW (340°)11.5 mph17.3 mphClear
4:54 PM46.0 °F21.9 °F39 %30.20 in10.0 miNNW (340°)12.7 mphClear
5:54 PM42.1 °F24.1 °F49 %30.23 in10.0 miNW (320°)4.6 mphClear
6:54 PM39.0 °F26.1 °F60 %30.26 in10.0 miNNW (340°)13.8 mphClear
7:54 PM37.0 °F26.1 °F65 %30.28 in10.0 miNNW (340°)10.4 mphClear
8:54 PM35.1 °F26.1 °F70 %30.29 in10.0 miNNW (340°)6.9 mphClear
9:54 PM32.0 °F26.1 °F79 %30.32 in10.0 miNW (320°)5.8 mphClear
10:54 PM30.9 °F25.0 °F79 %30.33 in10.0 miNNW (340°)3.5 mphClear
11:54 PM30.0 °F25.0 °F82 %30.35 in10.0 miCalmClear
Hourly data recorded from KAVL, located miles away from Asheville, North Carolina







STORIES FROM OUR PARTNERS